TimePST,TemperatureF,Dew PointF,Humidity,Sea Level PressureIn,VisibilityMPH,Wind Direction,Wind SpeedMPH,Gust SpeedMPH,PrecipitationIn,Events,Conditions,WindDirDegrees,DateUTC
12:00 AM,45.7,42.8,90,29.97,-9999.0,SSE,26.5,-,N/A,,Unknown,160,2013-01-02 08:00:00
1:00 AM,45.7,43.3,92,29.95,-9999.0,South,29.9,-,N/A,,Unknown,170,2013-01-02 09:00:00
2:00 AM,45.9,43.2,90,29.93,-9999.0,SSE,23.0,-,N/A,,Unknown,160,2013-01-02 10:00:00
3:00 AM,45.5,43.2,92,29.93,-9999.0,SSE,29.9,-,N/A,,Unknown,160,2013-01-02 11:00:00
4:00 AM,46,43,84,29.91,,South,28.8,,,,,170,2013-01-02 12:00:00
4:00 AM,45.7,42.6,89,29.91,-9999.0,South,28.8,-,N/A,,Unknown,170,2013-01-02 12:00:00
5:00 AM,45.5,44.1,95,29.91,-9999.0,SSE,24.2,-,N/A,,Unknown,160,2013-01-02 13:00:00
6:00 AM,45.9,43.9,93,29.90,-9999.0,SSE,25.3,-,N/A,,Unknown,160,2013-01-02 14:00:00
7:00 AM,46.0,43.3,90,29.86,-9999.0,SSE,27.6,-,N/A,,Unknown,160,2013-01-02 15:00:00
8:00 AM,46.2,43.9,92,29.86,-9999.0,SSE,25.3,-,N/A,,Unknown,160,2013-01-02 16:00:00
9:00 AM,46.0,44.1,93,29.86,-9999.0,SSE,23.0,-,N/A,,Unknown,160,2013-01-02 17:00:00
10:00 AM,46,44,90,29.86,,SSE,23.0,,,,,160,2013-01-02 18:00:00
10:00 AM,46.0,44.1,93,29.86,-9999.0,SSE,23.0,-,N/A,,Unknown,160,2013-01-02 18:00:00
11:00 AM,46.4,44.4,93,29.86,-9999.0,SSE,21.9,-,N/A,,Unknown,160,2013-01-02 19:00:00
12:00 PM,46.6,44.4,92,29.85,-9999.0,SSE,19.6,-,N/A,,Unknown,160,2013-01-02 20:00:00
1:00 PM,46.9,44.2,90,29.83,-9999.0,South,21.9,-,N/A,,Unknown,170,2013-01-02 21:00:00
2:00 PM,46.9,44.8,92,29.83,-9999.0,SSE,18.4,-,N/A,,Unknown,160,2013-01-02 22:00:00
3:00 PM,47.5,44.4,89,29.83,-9999.0,South,15.0,-,N/A,,Unknown,180,2013-01-02 23:00:00
4:00 PM,47,45,90,29.83,,South,12.7,,,,,170,2013-01-03 00:00:00
4:00 PM,46.9,45.0,93,29.83,-9999.0,South,12.7,-,N/A,,Unknown,170,2013-01-03 00:00:00
5:00 PM,47.1,44.8,92,29.86,-9999.0,South,11.5,-,N/A,,Unknown,170,2013-01-03 01:00:00
6:00 PM,46.9,45.1,93,29.89,-9999.0,South,6.9,-,N/A,,Unknown,180,2013-01-03 02:00:00
7:00 PM,41.4,39.7,94,29.91,-9999.0,North,26.5,-,N/A,,Unknown,350,2013-01-03 03:00:00
8:00 PM,40.8,39.2,94,29.95,-9999.0,NNW,18.4,-,N/A,,Unknown,340,2013-01-03 04:00:00
9:00 PM,40.8,39.4,95,29.97,-9999.0,NNW,9.2,-,N/A,,Unknown,330,2013-01-03 05:00:00
10:00 PM,40,39,96,29.99,,NW,5.8,,,,,320,2013-01-03 06:00:00
10:00 PM,40.5,39.2,95,29.99,-9999.0,NW,5.8,-,N/A,,Unknown,320,2013-01-03 06:00:00
11:00 PM,40.5,39.2,95,29.99,-9999.0,WNW,5.8,-,N/A,,Unknown,300,2013-01-03 07:00:00